Regional Weather Roundup
Issued by NWS

Home | Current Version | Previous Version | Graphics & Text | Print | Product List | Glossary On
Versions: 1 2 3 4 5 6 7 8 9 10 11 12 13 14 15 16 17 18 19 20 21 22 23 24 25 26 27 28 29 30 31 32 33 34 35 36 37 38 39 40 41 42 43 44 45 46 47 48 49 50
000
ASUS43 KIND 212309
RWRIN

WEATHER ROUNDUP FOR INDIANA
NATIONAL WEATHER SERVICE INDIANAPOLIS IN
600 PM EST SUN DEC 21 2014

NOTE: "FAIR" INDICATES FEW OR NO CLOUDS BELOW 12,000 FEET WITH NO
SIGNIFICANT WEATHER AND/OR OBSTRUCTIONS TO VISIBILITY.

* - STATION DOES NOT REPORT WEATHER SUCH AS PRECIPITATION OR FOG.

+ - STATION NOT QUALITY CONTROLLED BY THE NATIONAL WEATHER SERVICE.
    USE DATA WITH CAUTION...ESPECIALLY DEWPOINT AND RELATIVE
    HUMIDITY OBSERVATIONS.

INZ001>003-010>013-019-020-220000-
NORTHWEST INDIANA

CITY           SKY/WX    TMP DP  RH WIND       PRES   REMARKS
GARY /AIRPORT/ MOCLDY    36  27  69 SE7       30.11F
KNOX *+        CLEAR     33  25  71 SE9       30.13S WCI  25
LA PORTE +     PTCLDY    35  30  79 S6        30.13S WCI  30
MICHIGAN CITY+ PTCLDY    34  25  69 SE3       30.12S
MONTICELLO +   PTCLDY    34  29  82 SE3       30.12F
RENSSELAER +   MOCLDY    34  32  93 SE8       30.11F WCI  27
VALPARAISO     PTCLDY    34  27  75 SE7       30.11F WCI  28

$$

LMZ046-743>745-220000-
SOUTHERN LAKE MICHIGAN

STATION/POSITION TIME  TEMP WIND        PRES
                       AIR  DIR/SP/G
                 (UTC) (F)  (DEG/KT/KT) (MB)

$$

INZ004-005-014>016-021>024-220000-
NORTH CENTRAL INDIANA

CITY           SKY/WX    TMP DP  RH WIND       PRES   REMARKS
GOSHEN         PTCLDY    32  25  75 SE7       30.14F WCI  26
LOGANSPORT +   PTCLDY    32  28  86 SE7       30.15S WCI  26
PERU/GRISSOM   PTCLDY    31  31 100 SE8       30.14S WCI  24
ROCHESTER +    FAIR      34  32  93 SE7       30.15S WCI  28
SOUTH BEND     PTCLDY    34  27  75 SE9       30.14S WCI  27
WARSAW +       PTCLDY    32  27  80 SE3       30.15S

$$

INZ006>009-017-018-025>027-220000-
NORTHEAST INDIANA

CITY           SKY/WX    TMP DP  RH WIND       PRES   REMARKS
ANGOLA *+      CLEAR     30  18  59 SE7       30.16F WCI  23
AUBURN +       PTCLDY    32  27  80 E3        30.18S
FORT WAYNE     PTCLDY    31  25  78 E8        30.18S WCI  23
HUNTINGTON +   CLEAR     31  26  83 SE3       30.17R

$$

INZ028-029-035-036-043>045-051>053-220000-
WEST CENTRAL INDIANA

CITY           SKY/WX    TMP DP  RH WIND       PRES   REMARKS
GREENCASTLE +  PTCLDY    32  27  80 E6        30.12F WCI  26
LAFAYETTE      MOCLDY    33  27  78 SE7       30.12F WCI  27
TERRE HAUTE    PTCLDY    33  27  78 E6        30.11F WCI  28

$$

INZ030>032-037>040-046>048-054>057-064-065-220000-
CENTRAL INDIANA

CITY           SKY/WX    TMP DP  RH WIND       PRES   REMARKS
CP ATTERBURY + PTCLDY    32  28  86 MISG      30.15F
FRANKFORT +    PTCLDY    33  29  86 E9        30.14S WCI  25
INDIANAPOLIS   MOCLDY    32  26  78 E5        30.13F WCI  27
-EAGLE CREEK   PTCLDY    33  27  78 SE5       30.13F WCI  29
KOKOMO *+      PTCLDY    32  27  80 SE6       30.15S WCI  26
MARION +       PTCLDY    31  27  83 SE5       30.16S WCI  27
MT COMFORT *+  PTCLDY    32  23  69 E7        30.14F WCI  26
SHELBYVILLE    PTCLDY    33  27  78 E7        30.14F WCI  27
ZIONSVILLE +   PTCLDY    32  26  78 SE5       30.14S WCI  28

$$

INZ033-034-041-042-049-050-058-059-220000-
EAST CENTRAL INDIANA

CITY           SKY/WX    TMP DP  RH WIND       PRES   REMARKS
MUNCIE         PTCLDY    31  27  85 SE3       30.16R

$$

INZ060-061-067>069-081>083-085>088-220000-
SOUTHWEST INDIANA

CITY           SKY/WX    TMP DP  RH WIND       PRES   REMARKS
EVANSVILLE     CLEAR     41  29  62 E3        30.11S
HUNTINGBURG *+ CLEAR     39  28  65 E5        30.11S
WASHINGTON +   PTCLDY    35  28  75 E5        30.11S WCI  31

$$

INZ062-063-066-070>080-084-089>092-220000-
SOUTH CENTRAL AND SOUTHEAST INDIANA

CITY           SKY/WX    TMP DP  RH WIND       PRES   REMARKS
BLOOMINGTON    PTCLDY    34  28  79 E7        30.12F WCI  28

$$



USA.gov is the U.S. government's official web portal to all federal, state and local government web resources and services.